Starlink 6036

operational
NORAD ID: 56800 Int'l Des: 2023-078 Owner: SPXS Country: US Constellation: starlink
LEOCIRCULAR

Über Starlink 6036

Beschreibung wird geladen...

Live-Position

3D-Globus wird geladen...

Nächste Überflüge

Höhenverlauf

Altitude vs Time

uPlot chart will show altitude changes over time

Zweizeiliger Elementsatz

1 56800U 23078AK 26063.11296673 .00000308 00000-0 33621-4 0 9991
2 56800 70.0016 358.5686 0002819 260.1963 99.8878 14.98328977151849
Epoch: 4. März 2026 • Age: 21 hours

Aktueller Status

Höhe 585.1 km
Geschwindigkeit 7.57 km/s
Subsatellitenpunkt 67.78°N, 53.92°W
Startdatum 31. Mai 2023
Alter 2.7 years
Typ internet

Technische Details

Klassifizierung Payload
Masse 305.00 kg
Trockenmasse 290.00 kg
Gesamtmasse 305.00 kg
Länge 0.20 m
Durchmesser 2.80 m
Spannweite 9.00 m
Form Box + pan
Hersteller SPXS
Bus-Typ Starlink
Phasenstatus In Orbit
Besitzer/Staat SPXS/US

Große Konstellationen

Loading constellations...